Weather History for Kelso-Longview, WA

Change the Weather History Date:

Friday, April 25, 2014

  Actual Average Record
Temperature  
Mean Temperature 50 °F -  
Max Temperature 57 °F 60 °F 78 °F (2001)
Min Temperature 42 °F 40 °F 33 °F (2003)
Degree Days  
Heating Degree Days 16    
Moisture  
Dew Point 39 °F    
Average Humidity 68    
Maximum Humidity 87    
Minimum Humidity 47    
Precipitation  
Precipitation 0.00 in - - ()
Sea Level Pressure  
Sea Level Pressure 29.91 in    
Wind  
Wind Speed 2 mph (West)    
Max Wind Speed 13 mph    
Max Gust Speed 21 mph    
Visibility 10 miles    
Events      
Averages and records for this station are not official NWS values.
T = Trace of Precipitation, MM = Missing Value Source: NWS Daily Summary

Daily Weather History Graph

Daily Weather History Graph

Search for Another Location

Airport:

Trip Planner

Search our weather history database for the weather conditions in past years. The results will help you decide how hot, cold, wet, or windy it might be!

Date:

Astronomy

Apr. 25, 2014 Rise Set
Actual Time 6:07 AM PDT 8:12 PM PDT
Civil Twilight 5:35 AM PDT 8:44 PM PDT
Nautical Twilight 4:55 AM PDT 9:25 PM PDT
Astronomical Twilight 4:10 AM PDT 10:09 PM PDT
Moon 4:12 AM PDT (4/25) 4:29 PM PDT (4/25)
Length of Visible Light 15h 09m
Length of Day
14h 04m
Waning Crescent, 14% of the Moon is Illuminated
Apr 25
Waning Crescent
Apr 28
New
May 6
First Quarter
May 14
Full
May 21
Last Quarter

Hourly Weather History & Observations

Time (PDT) Temp. Windchill Dew Point Humidity Pressure Visibility Wind Dir Wind Speed Gust Speed Precip Events Conditions
12:15 AM 48.2 °F - 41.0 °F 76% 29.94 in 10.0 mi Calm Calm - N/A   Overcast
12:35 AM 46.4 °F 45.2 °F 41.0 °F 81% 29.94 in 10.0 mi SSE 3.5 mph - N/A   Overcast
12:55 AM 46.4 °F - 41.0 °F 81% 29.94 in 10.0 mi Calm Calm - N/A   Overcast
1:15 AM 46.4 °F 43.5 °F 41.0 °F 81% 29.94 in 10.0 mi South 5.8 mph - N/A   Overcast
1:35 AM 46.4 °F - 42.8 °F 87% 29.94 in 10.0 mi Calm Calm - N/A   Overcast
1:55 AM 46.4 °F 45.2 °F 42.8 °F 87% 29.94 in 10.0 mi SSE 3.5 mph - N/A   Overcast
2:15 AM 46.4 °F - 42.8 °F 87% 29.93 in 10.0 mi Calm Calm - N/A   Overcast
2:35 AM 46.4 °F - 41.0 °F 81% 29.93 in 10.0 mi Calm Calm - N/A   Overcast
2:55 AM 46.4 °F - 41.0 °F 81% 29.93 in 10.0 mi Calm Calm - N/A   Overcast
3:15 AM 44.6 °F - 41.0 °F 87% 29.92 in 10.0 mi Calm Calm - N/A   Overcast
3:35 AM 44.6 °F - 41.0 °F 87% 29.92 in 10.0 mi Calm Calm - N/A   Overcast
3:55 AM 44.6 °F - 41.0 °F 87% 29.92 in 10.0 mi Calm Calm - N/A   Overcast
4:15 AM 44.6 °F - 39.2 °F 81% 29.92 in 10.0 mi Calm Calm - N/A   Overcast
4:35 AM 44.6 °F - 39.2 °F 81% 29.91 in 10.0 mi Calm Calm - N/A   Mostly Cloudy
4:55 AM 44.6 °F - 39.2 °F 81% 29.92 in 10.0 mi Calm Calm - N/A   Mostly Cloudy
5:15 AM 44.6 °F - 39.2 °F 81% 29.92 in 10.0 mi Calm Calm - N/A   Mostly Cloudy
5:35 AM 42.8 °F - 39.2 °F 87% 29.91 in 10.0 mi Calm Calm - N/A   Mostly Cloudy
5:55 AM 42.8 °F - 39.2 °F 87% 29.91 in 10.0 mi Calm Calm - N/A   Mostly Cloudy
6:15 AM 42.8 °F - 37.4 °F 81% 29.91 in 10.0 mi Calm Calm - N/A   Partly Cloudy
6:35 AM 42.8 °F - 37.4 °F 81% 29.92 in 10.0 mi Calm Calm - N/A   Mostly Cloudy
6:55 AM 42.8 °F - 37.4 °F 81% 29.92 in 10.0 mi Calm Calm - N/A   Overcast
7:15 AM 42.8 °F - 37.4 °F 81% 29.92 in 10.0 mi Calm Calm - N/A   Overcast
7:35 AM 42.8 °F - 39.2 °F 87% 29.92 in 10.0 mi Calm Calm - N/A   Overcast
7:55 AM 42.8 °F - 39.2 °F 87% 29.93 in 10.0 mi Calm Calm - N/A   Overcast
8:15 AM 44.6 °F - 39.2 °F 81% 29.94 in 10.0 mi Calm Calm - N/A   Overcast
8:35 AM 44.6 °F - 39.2 °F 81% 29.93 in 10.0 mi Calm Calm - N/A   Overcast
8:55 AM 46.4 °F - 39.2 °F 76% 29.93 in 9.0 mi Calm Calm - N/A   Overcast
9:15 AM 46.4 °F - 39.2 °F 76% 29.93 in 10.0 mi Calm Calm - N/A   Overcast
9:35 AM 48.2 °F - 39.2 °F 71% 29.93 in 10.0 mi Calm Calm - N/A   Overcast
9:55 AM 48.2 °F - 39.2 °F 71% 29.92 in 10.0 mi Calm Calm - N/A   Overcast
10:15 AM 48.2 °F - 39.2 °F 71% 29.92 in 10.0 mi Calm Calm - N/A   Overcast
10:35 AM 50.0 °F - 39.2 °F 66% 29.91 in 10.0 mi Calm Calm - N/A   Scattered Clouds
10:55 AM 51.8 °F - 39.2 °F 62% 29.90 in 10.0 mi Calm Calm - N/A   Clear
11:15 AM 53.6 °F - 37.4 °F 54% 29.90 in 10.0 mi Calm Calm - N/A   Clear
11:35 AM 53.6 °F - 37.4 °F 54% 29.90 in 10.0 mi Calm Calm - N/A   Clear
11:55 AM 55.4 °F - 37.4 °F 51% 29.89 in 10.0 mi WNW 3.5 mph - N/A   Clear
12:15 PM 55.4 °F - 37.4 °F 51% 29.89 in 10.0 mi WSW 5.8 mph - N/A   Clear
12:35 PM 55.4 °F - 37.4 °F 51% 29.88 in 10.0 mi West 3.5 mph - N/A   Clear
12:55 PM 57.2 °F - 37.4 °F 48% 29.88 in 10.0 mi West 3.5 mph - N/A   Partly Cloudy
1:15 PM 55.4 °F - 37.4 °F 51% 29.87 in 10.0 mi WNW 3.5 mph - N/A   Partly Cloudy
1:35 PM 55.4 °F - 37.4 °F 51% 29.88 in 10.0 mi NW 8.1 mph 17.3 mph N/A   Partly Cloudy
1:55 PM 55.4 °F - 35.6 °F 47% 29.88 in 10.0 mi WNW 9.2 mph - N/A   Clear
2:15 PM 55.4 °F - 35.6 °F 47% 29.89 in 10.0 mi WNW 4.6 mph - N/A   Clear
2:35 PM 53.6 °F - 37.4 °F 54% 29.89 in 10.0 mi NW 6.9 mph - N/A   Partly Cloudy
2:55 PM 53.6 °F - 37.4 °F 54% 29.89 in 10.0 mi Calm Calm - N/A   Scattered Clouds
3:15 PM 53.6 °F - 37.4 °F 54% 29.89 in 10.0 mi West 3.5 mph - N/A   Mostly Cloudy
3:35 PM 53.6 °F - 37.4 °F 54% 29.89 in 10.0 mi WNW 4.6 mph - N/A   Mostly Cloudy
3:55 PM 53.6 °F - 39.2 °F 58% 29.89 in 10.0 mi WSW 5.8 mph - N/A   Mostly Cloudy
4:15 PM 53.6 °F - 37.4 °F 54% 29.89 in 10.0 mi WNW 6.9 mph - N/A   Mostly Cloudy
4:35 PM 53.6 °F - 37.4 °F 54% 29.89 in 10.0 mi WNW 8.1 mph - N/A   Mostly Cloudy
4:55 PM 51.8 °F - 37.4 °F 58% 29.90 in 10.0 mi West 3.5 mph - N/A   Overcast
5:15 PM 51.8 °F - 37.4 °F 58% 29.90 in 10.0 mi WSW 6.9 mph - N/A   Overcast
5:35 PM 50.0 °F - 39.2 °F 66% 29.90 in 10.0 mi WSW 3.5 mph - N/A   Scattered Clouds
5:55 PM 50.0 °F - 39.2 °F 66% 29.90 in 10.0 mi Calm Calm - N/A   Partly Cloudy
6:15 PM 51.8 °F - 39.2 °F 62% 29.90 in 10.0 mi Calm Calm - N/A   Partly Cloudy
6:35 PM 53.6 °F - 39.2 °F 58% 29.89 in 10.0 mi Calm Calm - N/A   Scattered Clouds
6:55 PM 53.6 °F - 39.2 °F 58% 29.89 in 10.0 mi West 12.7 mph 20.7 mph N/A   Mostly Cloudy
7:15 PM 53.6 °F - 35.6 °F 51% 29.90 in 10.0 mi NNW 5.8 mph - N/A   Mostly Cloudy
7:35 PM 51.8 °F - 35.6 °F 54% 29.90 in 10.0 mi NW 3.5 mph - N/A   Mostly Cloudy
7:55 PM 51.8 °F - 37.4 °F 58% 29.90 in 10.0 mi Calm Calm - N/A   Overcast
8:15 PM 51.8 °F - 37.4 °F 58% 29.90 in 10.0 mi NW 3.5 mph - N/A   Overcast
8:35 PM 51.8 °F - 37.4 °F 58% 29.90 in 10.0 mi Calm Calm - N/A   Overcast
8:55 PM 50.0 °F - 37.4 °F 62% 29.91 in 10.0 mi Calm Calm - N/A   Overcast
9:15 PM 50.0 °F - 37.4 °F 62% 29.92 in 10.0 mi Calm Calm - N/A   Overcast
9:35 PM 48.2 °F - 37.4 °F 66% 29.92 in 10.0 mi Calm Calm - N/A   Overcast
10:15 PM 48.2 °F - 37.4 °F 66% 29.92 in 10.0 mi Calm Calm - N/A   Mostly Cloudy
10:35 PM 48.2 °F - 37.4 °F 66% 29.92 in 10.0 mi WNW 3.5 mph - N/A   Mostly Cloudy
10:55 PM 46.4 °F 45.2 °F 37.4 °F 71% 29.92 in 10.0 mi NNW 3.5 mph - N/A   Overcast
11:15 PM 46.4 °F - 37.4 °F 71% 29.92 in 10.0 mi Calm Calm - N/A   Scattered Clouds
11:55 PM 44.6 °F - 37.4 °F 76% 29.92 in 10.0 mi Calm Calm - N/A   Clear